Weather History for Brunswick, GA

Change the Weather History Date:

Monday, May 28, 2012

  Actual Average Record
Temperature  
Mean Temperature 76 °F -  
Max Temperature 82 °F 85 °F 98 °F (2000)
Min Temperature 71 °F 66 °F 54 °F (1934)
Cooling Degree Days 12    
Growing Degree Days 26 (Base 50)    
Moisture  
Dew Point 71 °F    
Average Humidity 81    
Maximum Humidity 94    
Minimum Humidity 70    
Precipitation  
Precipitation 0.00 in - - ()
Sea Level Pressure  
Sea Level Pressure 29.85 in    
Wind  
Wind Speed 21 mph (ESE)    
Max Wind Speed 32 mph    
Max Gust Speed 45 mph    
Visibility 9 miles    
Events Thunderstorm    
Averages and records for this station are not official NWS values.
T = Trace of Precipitation, MM = Missing Value Source: NWS Daily Summary

Daily Weather History Graph

Daily Weather History Graph

Search for Another Location

Airport:

Trip Planner

Search our weather history database for the weather conditions in past years. The results will help you decide how hot, cold, wet, or windy it might be!

Date:

Astronomy

May. 28, 2012 Rise Set
Actual Time 6:23 AM EDT 8:23 PM EDT
Civil Twilight 5:56 AM EDT 8:50 PM EDT
Nautical Twilight 5:22 AM EDT 9:23 PM EDT
Astronomical Twilight 4:47 AM EDT 9:59 PM EDT
Moon 1:13 PM EDT (5/28) 1:16 AM EDT (5/28)
Length of Visible Light 14h 54m
Length of Day
14h 00m
Waxing Crescent, 48% of the Moon is Illuminated
May 28
Waxing Crescent
May 28
First Quarter
Jun 4
Full
Jun 11
Last Quarter
Jun 19
New

Hourly Weather History & Observations

Time (EDT) Temp. Heat Index Dew Point Humidity Pressure Visibility Wind Dir Wind Speed Gust Speed Precip Events Conditions
12:15 AM 77.0 °F - 69.8 °F 78% 29.81 in 10.0 mi NE 23.0 mph 36.8 mph N/A   Overcast
12:35 AM 77.0 °F - 69.8 °F 78% 29.80 in 10.0 mi NE 32.2 mph 40.3 mph N/A   Overcast
12:55 AM 73.4 °F - 71.6 °F 94% 29.79 in 1.8 mi ENE 31.1 mph 44.9 mph N/A   Overcast
1:15 AM 73.4 °F - 71.6 °F 94% 29.80 in 5.0 mi ENE 27.6 mph 34.5 mph N/A   Overcast
1:35 AM 73.4 °F - 69.8 °F 88% 29.80 in 10.0 mi ENE 25.3 mph 33.4 mph N/A   Overcast
1:55 AM 73.4 °F - 71.6 °F 94% 29.80 in 10.0 mi ENE 24.2 mph 31.1 mph N/A   Mostly Cloudy
2:15 AM 73.4 °F - 69.8 °F 88% 29.80 in 7.0 mi ENE 24.2 mph 28.8 mph N/A   Overcast
2:35 AM 73.4 °F - 69.8 °F 88% 29.80 in 10.0 mi ENE 18.4 mph 26.5 mph N/A   Mostly Cloudy
2:55 AM 73.4 °F - 69.8 °F 88% 29.80 in 10.0 mi ENE 21.9 mph 27.6 mph N/A Thunderstorm Scattered Clouds
3:15 AM 73.4 °F - 69.8 °F 88% 29.80 in 7.0 mi East 21.9 mph 33.4 mph N/A   Mostly Cloudy
3:35 AM 71.6 °F - 69.8 °F 94% 29.78 in 7.0 mi East 20.7 mph 27.6 mph N/A Thunderstorm Overcast
3:55 AM 73.4 °F - 71.6 °F 94% 29.77 in 10.0 mi ENE 21.9 mph 25.3 mph N/A   Mostly Cloudy
4:15 AM 75.2 °F - 71.6 °F 89% 29.77 in 10.0 mi East 26.5 mph 32.2 mph N/A   Mostly Cloudy
4:35 AM 75.2 °F - 71.6 °F 89% 29.77 in 5.0 mi East 26.5 mph 34.5 mph N/A   Overcast
4:55 AM 75.2 °F - 71.6 °F 89% 29.77 in 7.0 mi East 23.0 mph 31.1 mph N/A   Overcast
5:15 AM 77.0 °F - 71.6 °F 83% 29.77 in 7.0 mi East 23.0 mph 27.6 mph N/A   Overcast
5:35 AM 75.2 °F - 69.8 °F 83% 29.79 in 10.0 mi ESE 19.6 mph 27.6 mph N/A   Overcast
5:55 AM 73.4 °F - 69.8 °F 88% 29.80 in 10.0 mi ESE 10.4 mph 18.4 mph N/A Thunderstorm Mostly Cloudy
6:15 AM 75.2 °F - 69.8 °F 83% 29.80 in 10.0 mi ESE 15.0 mph 19.6 mph N/A   Overcast
6:35 AM 75.2 °F - 69.8 °F 83% 29.81 in 10.0 mi ESE 17.3 mph 24.2 mph N/A   Mostly Cloudy
6:55 AM 75.2 °F - 68.0 °F 78% 29.82 in 10.0 mi ESE 16.1 mph 24.2 mph N/A   Overcast
7:15 AM 75.2 °F - 69.8 °F 83% 29.83 in 10.0 mi ESE 16.1 mph 24.2 mph N/A   Overcast
7:35 AM 77.0 °F - 69.8 °F 78% 29.84 in 10.0 mi ESE 17.3 mph - N/A   Overcast
7:55 AM 77.0 °F - 68.0 °F 74% 29.85 in 10.0 mi East 20.7 mph 24.2 mph N/A Thunderstorm Overcast
8:15 AM 75.2 °F - 69.8 °F 83% 29.85 in 4.0 mi East 21.9 mph 32.2 mph N/A   Overcast
8:35 AM 77.0 °F - 69.8 °F 78% 29.84 in 10.0 mi East 18.4 mph 34.5 mph N/A   Overcast
8:55 AM 78.8 °F - 69.8 °F 74% 29.85 in 10.0 mi East 21.9 mph 26.5 mph N/A   Overcast
9:15 AM 77.0 °F - 71.6 °F 83% 29.86 in 7.0 mi East 18.4 mph 33.4 mph N/A   Overcast
9:35 AM 77.0 °F - 71.6 °F 83% 29.86 in 2.5 mi East 18.4 mph 29.9 mph N/A   Overcast
9:55 AM 75.2 °F - 71.6 °F 89% 29.88 in 1.8 mi SE 12.7 mph 31.1 mph N/A   Overcast
10:15 AM 77.0 °F - 71.6 °F 83% 29.86 in 10.0 mi ESE 23.0 mph 29.9 mph N/A Thunderstorm Thunderstorm
10:35 AM 78.8 °F - 73.4 °F 83% 29.86 in 10.0 mi ESE 18.4 mph 27.6 mph N/A   Overcast
10:55 AM 78.8 °F - 73.4 °F 83% 29.87 in 10.0 mi ESE 17.3 mph 25.3 mph N/A   Overcast
11:15 AM 78.8 °F - 71.6 °F 78% 29.87 in 10.0 mi ESE 17.3 mph 29.9 mph N/A   Overcast
11:35 AM 78.8 °F - 71.6 °F 78% 29.88 in 10.0 mi ESE 17.3 mph 28.8 mph N/A   Scattered Clouds
11:55 AM 80.6 °F 84.6 °F 71.6 °F 74% 29.87 in 10.0 mi ESE 17.3 mph 26.5 mph N/A   Clear
12:15 PM 80.6 °F 85.4 °F 73.4 °F 79% 29.86 in 10.0 mi ESE 21.9 mph 27.6 mph N/A   Mostly Cloudy
12:35 PM 80.6 °F 85.4 °F 73.4 °F 79% 29.87 in 10.0 mi ESE 23.0 mph 28.8 mph N/A Thunderstorm Overcast
12:55 PM 82.4 °F 88.2 °F 73.4 °F 74% 29.87 in 10.0 mi SE 18.4 mph 29.9 mph N/A   Mostly Cloudy
1:15 PM 82.4 °F 88.2 °F 73.4 °F 74% 29.86 in 10.0 mi SE 23.0 mph 32.2 mph N/A   Mostly Cloudy
1:35 PM 82.4 °F 87.2 °F 71.6 °F 70% 29.85 in 10.0 mi ESE 20.7 mph 29.9 mph N/A   Mostly Cloudy
1:55 PM 82.4 °F 87.2 °F 71.6 °F 70% 29.85 in 10.0 mi SE 24.2 mph 31.1 mph N/A   Mostly Cloudy
2:15 PM 82.4 °F 87.2 °F 71.6 °F 70% 29.86 in 10.0 mi SE 21.9 mph 29.9 mph N/A   Mostly Cloudy
2:35 PM 82.4 °F 87.2 °F 71.6 °F 70% 29.85 in 10.0 mi ESE 21.9 mph 32.2 mph N/A   Mostly Cloudy
2:55 PM 78.8 °F - 69.8 °F 74% 29.88 in 10.0 mi South 21.9 mph 32.2 mph N/A   Mostly Cloudy
3:15 PM 73.4 °F - 69.8 °F 88% 29.88 in 3.0 mi SSE 12.7 mph 23.0 mph N/A   Overcast
3:35 PM 71.6 °F - 69.8 °F 94% 29.86 in 7.0 mi SSE 9.2 mph - N/A   Overcast
3:55 PM 75.2 °F - 71.6 °F 89% 29.85 in 10.0 mi ESE 10.4 mph - N/A   Overcast
4:15 PM 77.0 °F - 71.6 °F 83% 29.85 in 10.0 mi SE 15.0 mph 25.3 mph N/A   Mostly Cloudy
4:35 PM 77.0 °F - 69.8 °F 78% 29.85 in 10.0 mi SE 12.7 mph 20.7 mph N/A   Mostly Cloudy
4:55 PM 78.8 °F - 69.8 °F 74% 29.85 in 10.0 mi SE 11.5 mph 21.9 mph N/A   Clear
5:15 PM 80.6 °F 84.6 °F 71.6 °F 74% 29.85 in 10.0 mi SE 15.0 mph 23.0 mph N/A   Clear
5:35 PM 80.6 °F 84.6 °F 71.6 °F 74% 29.85 in 10.0 mi SE 17.3 mph 27.6 mph N/A   Scattered Clouds
5:55 PM 80.6 °F 83.9 °F 69.8 °F 70% 29.86 in 10.0 mi ESE 13.8 mph 25.3 mph N/A   Scattered Clouds
6:15 PM 78.8 °F - 69.8 °F 74% 29.87 in 10.0 mi ESE 20.7 mph 27.6 mph N/A   Mostly Cloudy
6:35 PM 77.0 °F - 69.8 °F 78% 29.87 in 10.0 mi SE 18.4 mph 25.3 mph N/A   Overcast
6:55 PM 77.0 °F - 69.8 °F 78% 29.87 in 10.0 mi SE 15.0 mph 25.3 mph N/A   Overcast
7:15 PM 77.0 °F - 69.8 °F 78% 29.88 in 10.0 mi SE 12.7 mph 23.0 mph N/A   Scattered Clouds
7:35 PM 77.0 °F - 69.8 °F 78% 29.88 in 10.0 mi SE 18.4 mph 28.8 mph N/A   Scattered Clouds
7:55 PM 77.0 °F - 69.8 °F 78% 29.89 in 10.0 mi SE 11.5 mph 21.9 mph N/A   Overcast
8:15 PM 77.0 °F - 69.8 °F 78% 29.89 in 10.0 mi SE 17.3 mph 24.2 mph N/A   Overcast
8:35 PM 77.0 °F - 69.8 °F 78% 29.89 in 10.0 mi SE 13.8 mph 20.7 mph N/A   Overcast
8:55 PM 77.0 °F - 69.8 °F 78% 29.89 in 10.0 mi SE 12.7 mph 21.9 mph N/A   Overcast
9:15 PM 77.0 °F - 69.8 °F 78% 29.89 in 10.0 mi SE 11.5 mph 19.6 mph N/A   Overcast
9:35 PM 77.0 °F - 68.0 °F 74% 29.90 in 10.0 mi SSE 10.4 mph 20.7 mph N/A   Scattered Clouds
9:55 PM 77.0 °F - 69.8 °F 78% 29.90 in 10.0 mi SE 10.4 mph - N/A   Mostly Cloudy
10:15 PM 78.8 °F - 69.8 °F 74% 29.91 in 10.0 mi SE 13.8 mph 18.4 mph N/A   Overcast
10:35 PM 77.0 °F - 69.8 °F 78% 29.92 in 10.0 mi SE 10.4 mph 16.1 mph N/A   Overcast
10:55 PM 77.0 °F - 71.6 °F 83% 29.92 in 10.0 mi SE 10.4 mph - N/A   Overcast
11:15 PM 77.0 °F - 71.6 °F 83% 29.92 in 10.0 mi SE 9.2 mph - N/A   Overcast
11:35 PM 77.0 °F - 71.6 °F 83% 29.91 in 10.0 mi SE 11.5 mph 16.1 mph N/A   Overcast
11:55 PM 77.0 °F - 71.6 °F 83% 29.91 in 10.0 mi SE 12.7 mph 17.3 mph N/A   Overcast